User: anonymous   Login
Location: Luz Observatory
(34.5000°N, 117.2833°W)
Time: 09:03:22
(UTC-07:00)
Language:

Okean 3 Rocket - Orbit

View from above orbital plane
View from above orbital plane
View from above satellite
View from above satellite

Ground track
Ground track

The orbit data is extracted from the following two-line orbital elements,

1 21398U 91039B   15086.99974003  .00000593  00000-0  76177-4 0  9995
2 21398 082.5203 262.1114 0020716 327.8700 149.6775 14.79414520283813
Epoch (UTC): 27 March 2015 23:59:37
Eccentricity: 0.0020716
inclination: 82.5203°
perigee height: 616 km
apogee height: 645 km
right ascension of ascending node: 262.1114°
argument of perigee: 327.8700°
revolutions per day: 14.79414520
mean anomaly at epoch: 149.6775°
orbit number at epoch: 28381

The dashed part of the orbit path shows where the satellite is in the earth's shadow,  

DLR